Provincetown, MA

9:23 AM EDT on May 23, 2018 (GMT -0400)
Provincetown Municipal

Weather History for KPVC - April, 2013

Change the Weather History Date:

Wednesday, April 10, 2013

  Actual Average Record
Temperature  
Mean Temperature 48 °F -  
Max Temperature 53 °F 48 °F 68 °F (1955)
Min Temperature 42 °F 36 °F 26 °F (2018)
Degree Days  
Heating Degree Days 18    
Moisture  
Dew Point 42 °F    
Average Humidity 85    
Maximum Humidity 100    
Minimum Humidity 67    
Precipitation  
Precipitation 0.00 in - - ()
Sea Level Pressure  
Sea Level Pressure 29.96 in    
Wind  
Wind Speed 7 mph (ESE)    
Max Wind Speed 14 mph    
Max Gust Speed 17 mph    
Visibility 10 miles    
Events      
Averages and records for this station are not official NWS values.
T = Trace of Precipitation, MM = Missing Value Source: NWS Daily Summary

Daily Weather History Graph

Daily Weather History Graph

Search for Another Location

Airport or City:

Astronomy

Apr. 10, 2013 Rise Set
Actual Time 6:08 AM EDT 7:16 PM EDT
Civil Twilight 5:39 AM EDT 7:45 PM EDT
Nautical Twilight 5:05 AM EDT 8:20 PM EDT
Astronomical Twilight 4:29 AM EDT 8:56 PM EDT
Moon 6:01 AM EDT (4/10) 7:50 PM EDT (4/10)
Length of Visible Light 14h 06m
Length of Day
13h 08m
New Moon, 0% of the Moon is Illuminated
Apr 10
New Moon
Apr 18
First Quarter
Apr 25
Full
May 2
Last Quarter
May 9
New

Hourly Weather History & Observations

Time (EDT) Temp. Windchill Dew Point Humidity Pressure Visibility Wind Dir Wind Speed Gust Speed Precip Events Conditions
12:15 AM 44.6 °F 40.7 °F 42.8 °F 93% 30.00 in 10.0 mi ESE 6.9 mph - N/A   Overcast
12:35 AM 44.6 °F 41.4 °F 41.0 °F 87% 29.98 in 10.0 mi SE 5.8 mph - N/A   Overcast
12:55 AM 44.6 °F 41.4 °F 41.0 °F 87% 29.99 in 10.0 mi South 5.8 mph - N/A   Overcast
1:15 AM 44.6 °F 40.7 °F 41.0 °F 87% 29.98 in 10.0 mi SSE 6.9 mph - N/A   Overcast
1:35 AM 44.6 °F 40.2 °F 41.0 °F 87% 29.97 in 10.0 mi South 8.1 mph - N/A   Overcast
2:15 AM 44.6 °F 42.2 °F 41.0 °F 87% 29.97 in 10.0 mi South 4.6 mph - N/A   Overcast
2:35 AM 44.6 °F - 41.0 °F 87% 29.97 in 10.0 mi Calm Calm - N/A   Overcast
2:55 AM 44.6 °F - 41.0 °F 87% 29.97 in 10.0 mi Calm Calm - N/A   Overcast
3:15 AM 44.6 °F - 42.8 °F 93% 29.99 in 10.0 mi Calm Calm - N/A   Overcast
3:35 AM 44.6 °F 41.4 °F 41.0 °F 87% 30.01 in 10.0 mi NW 5.8 mph - N/A   Overcast
3:55 AM 44.6 °F 41.4 °F 42.8 °F 93% 30.00 in 10.0 mi North 5.8 mph - N/A   Overcast
4:15 AM 42.8 °F 37.0 °F 41.0 °F 93% 30.03 in 8.0 mi NNW 10.4 mph - N/A   Mostly Cloudy
4:35 AM 42.8 °F 40.1 °F 42.8 °F 100% 30.01 in 7.0 mi North 4.6 mph - N/A   Overcast
4:55 AM 42.8 °F 39.3 °F 42.8 °F 100% 29.98 in 7.0 mi SE 5.8 mph - N/A   Mostly Cloudy
5:15 AM 42.8 °F 38.6 °F 42.8 °F 100% 29.95 in 9.0 mi SE 6.9 mph - N/A   Overcast
5:55 AM 44.6 °F 40.7 °F 42.8 °F 93% 29.93 in 10.0 mi East 6.9 mph - N/A   Overcast
6:15 AM 44.6 °F 41.4 °F 42.8 °F 93% 29.92 in 10.0 mi East 5.8 mph - N/A   Overcast
6:35 AM 44.6 °F 40.7 °F 42.8 °F 93% 29.93 in 10.0 mi East 6.9 mph - N/A   Overcast
7:15 AM 42.8 °F 38.0 °F 41.0 °F 93% 29.94 in 8.0 mi East 8.1 mph - N/A   Overcast
7:35 AM 44.6 °F 41.4 °F 42.8 °F 93% 29.94 in 10.0 mi East 5.8 mph - N/A   Overcast
7:55 AM 44.6 °F 39.7 °F 42.8 °F 93% 29.96 in 10.0 mi NE 9.2 mph - N/A   Overcast
8:15 AM 44.6 °F 41.4 °F 42.8 °F 93% 29.96 in 10.0 mi East 5.8 mph - N/A   Overcast
8:35 AM 44.6 °F 40.7 °F 42.8 °F 93% 29.96 in 10.0 mi ESE 6.9 mph - N/A   Overcast
8:55 AM 46.4 °F 42.4 °F 44.6 °F 93% 29.96 in 10.0 mi SE 8.1 mph - N/A   Overcast
9:35 AM 48.2 °F - 44.6 °F 87% 29.96 in 10.0 mi ESE 6.9 mph - N/A   Overcast
9:55 AM 48.2 °F - 44.6 °F 87% 29.96 in 10.0 mi SE 5.8 mph - N/A   Overcast
10:15 AM 46.4 °F 41.9 °F 41.0 °F 81% 29.97 in 10.0 mi NNE 9.2 mph - N/A   Overcast
10:35 AM 46.4 °F 41.1 °F 42.8 °F 87% 29.98 in 10.0 mi NNE 11.5 mph - N/A   Overcast
10:55 AM 46.4 °F 40.7 °F 42.8 °F 87% 29.98 in 10.0 mi NNE 12.7 mph 16.1 mph N/A   Overcast
11:15 AM 46.4 °F 40.7 °F 42.8 °F 87% 29.98 in 10.0 mi NNE 12.7 mph - N/A   Overcast
11:35 AM 46.4 °F 40.4 °F 42.8 °F 87% 29.99 in 10.0 mi NNE 13.8 mph - N/A   Overcast
11:55 AM 46.4 °F 40.7 °F 42.8 °F 87% 30.00 in 10.0 mi NNE 12.7 mph - N/A   Overcast
12:15 PM 46.4 °F 40.7 °F 44.6 °F 93% 30.00 in 10.0 mi NE 12.7 mph - N/A   Overcast
12:35 PM 46.4 °F 41.5 °F 42.8 °F 87% 29.99 in 10.0 mi NE 10.4 mph - N/A   Overcast
1:15 PM 48.2 °F - 42.8 °F 82% 30.00 in 10.0 mi NE 8.1 mph - N/A   Overcast
1:35 PM 48.2 °F - 42.8 °F 82% 29.99 in 10.0 mi ENE 6.9 mph - N/A   Overcast
1:55 PM 50.0 °F - 42.8 °F 76% 29.98 in 10.0 mi ENE 9.2 mph - N/A   Overcast
2:15 PM 53.6 °F - 42.8 °F 67% 29.99 in 10.0 mi ENE 4.6 mph - N/A   Overcast
2:35 PM 53.6 °F - 42.8 °F 67% 29.98 in 9.0 mi NNE 6.9 mph - N/A   Overcast
2:55 PM 53.6 °F - 42.8 °F 67% 29.97 in 10.0 mi NE 4.6 mph - N/A   Overcast
3:35 PM 53.6 °F - 42.8 °F 67% 29.96 in 10.0 mi North 4.6 mph - N/A   Overcast
3:55 PM 51.8 °F - 41.0 °F 67% 29.95 in 10.0 mi ENE 9.2 mph - N/A   Overcast
4:15 PM 48.2 °F - 42.8 °F 82% 29.95 in 10.0 mi NE 9.2 mph - N/A   Overcast
4:35 PM 48.2 °F - 42.8 °F 82% 29.92 in 10.0 mi East 11.5 mph - N/A   Overcast
4:55 PM 50.0 °F - 41.0 °F 71% 29.92 in 10.0 mi East 8.1 mph - N/A   Overcast
5:15 PM 51.8 °F - 41.0 °F 67% 29.93 in 10.0 mi East 6.9 mph - N/A   Overcast
5:35 PM 51.8 °F - 42.8 °F 71% 29.94 in 10.0 mi SE 5.8 mph - N/A   Overcast
5:55 PM 51.8 °F - 41.0 °F 67% 29.95 in 10.0 mi ESE 4.6 mph - N/A   Overcast
6:15 PM 48.2 °F - 42.8 °F 82% 29.94 in 10.0 mi SE 5.8 mph - N/A   Overcast
6:35 PM 48.2 °F - 41.0 °F 76% 29.95 in 10.0 mi SE 5.8 mph - N/A   Overcast
6:55 PM 48.2 °F - 41.0 °F 76% 29.92 in 10.0 mi SSE 9.2 mph 17.3 mph N/A   Overcast
7:15 PM 48.2 °F - 41.0 °F 76% 29.92 in 10.0 mi SE 10.4 mph - N/A   Overcast
7:35 PM 48.2 °F - 42.8 °F 82% 29.90 in 10.0 mi SSE 10.4 mph - N/A   Overcast
7:55 PM 48.2 °F - 41.0 °F 76% 29.90 in 10.0 mi SSE 11.5 mph - N/A   Overcast
8:35 PM 46.4 °F 41.5 °F 41.0 °F 81% 29.91 in 10.0 mi SSE 10.4 mph - N/A   Overcast
8:55 PM 46.4 °F 41.5 °F 42.8 °F 87% 29.91 in 10.0 mi South 10.4 mph 17.3 mph N/A   Overcast
9:15 PM 46.4 °F 41.5 °F 42.8 °F 87% 29.97 in 10.0 mi SW 10.4 mph 17.3 mph N/A   Overcast
9:35 PM 46.4 °F 43.5 °F 42.8 °F 87% 29.93 in 6.0 mi SSE 5.8 mph - N/A   Mostly Cloudy
9:55 PM 46.4 °F 42.9 °F 42.8 °F 87% 29.95 in 10.0 mi SSW 6.9 mph - N/A   Overcast
10:15 PM 44.6 °F 42.2 °F 42.8 °F 93% 29.91 in 10.0 mi South 4.6 mph - N/A   Overcast
10:35 PM 44.6 °F 42.2 °F 42.8 °F 93% 29.91 in 10.0 mi South 4.6 mph - N/A   Overcast
10:55 PM 46.4 °F - 42.8 °F 87% 29.92 in 10.0 mi Calm Calm - N/A   Overcast
11:15 PM 46.4 °F 44.3 °F 42.8 °F 87% 29.90 in 10.0 mi SE 4.6 mph - N/A   Overcast
11:35 PM 46.4 °F 45.2 °F 42.8 °F 87% 29.91 in 10.0 mi South 3.5 mph - N/A   Overcast